Regional Weather Roundup
Issued by NWS Goodland, KS

Home | Current Version | Previous Version | Graphics & Text | Print | Product List | Glossary On
Versions: 1 2 3 4 5 6 7 8 9 10 11 12 13 14 15 16 17 18 19 20 21 22 23 24 25 26 27 28 29 30 31 32 33 34 35 36 37 38 39 40 41 42 43 44 45 46 47 48 49 50
366
ASUS43 KGLD 221059
RWRGLD

GOODLAND FORECAST AREA HOURLY WEATHER ROUNDUP
NATIONAL WEATHER SERVICE GOODLAND KS
500 AM MDT MON MAY 22 2017

...OFFICIAL OBSERVATIONS...

CITY           SKY/WX    TMP DP  RH WIND       PRES   REMARKS
GOODLAND KS    CLOUDY    51  49  92 NW14      30.11S
HILL CITY KS   CLOUDY    56  53  90 NW7       30.06F
IMPERIAL NEB   CLEAR     48  43  82 W9        30.10F
MCCOOK NEB     CLOUDY    50  49  96 W7        30.08F
AKRON CO       CLOUDY    45  43  93 W9        30.16F
BURLINGTON CO  CLOUDY    50  49  96 W9        30.16R
LIMON CO       CLOUDY    45  44  97 NE3       30.19F
$$

...UNOFFICIAL OBSERVATIONS...

CITY           SKY/WX    TMP DP  RH WIND       PRES   REMARKS
NORTON KS      MOCLDY    54  48  82 W6        30.07S
SHARON SPRINGS   N/A     50  49  95 CALM        N/A
TRENTON NEB      N/A     49  32  52 CALM        N/A
KIT CARSON CO    N/A     49  46  89 MISG        N/A
YUMA CO        FAIR      45  34  65 W8        30.15S
$$




USA.gov is the U.S. government's official web portal to all federal, state and local government web resources and services.